[[{"header":{"parameterUnit":"m.s-1","parameterCategory":1,"la1":30.2991,"la2":30.254,"lo1":-89.0895,"lo2":-89.0444,"dy":0.0017,"dx":0.0017,"nx":28,"ny":28,"refTime":"2025-04-22T21:00:00:Z","depth":0,"parameterNumber":2,"parameterNumberName":"U-component_of_WINDS"},"data":[0,0,0,0,0,0,0,0,0,0,0,0,0,0,0,0,0,0,0,0,0,0,0,0,0,0,0,0,0,0,0,0,0,0,0,0,0,0,0,0,0,0,0,0,0,0,0,0,0,0,0,0,0,0,0,0,0,0,-2.0449,-2.0449,0,-2.041,-2.041,-2.0409,-2.034,-2.0339,-2.0338,-2.0337,-2.0297,-2.0297,-2.0297,0,0,0,0,0,0,0,0,0,0,0,0,0,-2.0466,-2.0466,-2.0449,-2.0449,-2.0448,-2.041,-2.041,-2.0409,-2.0341,-2.0339,-2.0338,-2.0336,-2.0297,-2.0297,-2.0297,0,0,0,0,0,0,0,0,0,0,0,0,0,-2.0446,-2.0466,-2.0449,-2.0409,-2.0405,-2.041,-2.041,-2.0409,-2.0341,-2.0339,-2.0337,-2.0335,-2.0297,-2.0297,-2.0297,-2.0338,0,0,-2.0298,-2.0298,0,0,0,0,0,0,0,0,-2.0447,-2.0446,-2.0416,-2.0412,-2.0408,-2.0378,-2.0401,-2.0385,-2.0341,-2.0366,-2.0337,-2.0334,-2.0326,-2.0323,-2.032,-2.0336,-2.0334,-2.0298,-2.0298,-2.0298,-2.0298,0,0,0,0,0,0,0,-2.0449,-2.0447,-2.0434,-2.0415,-2.0411,-2.0394,-2.0389,-2.0398,-2.0357,-2.0363,-2.0358,-2.0354,-2.0323,-2.032,-2.0319,-2.0334,-2.0298,-2.0298,-2.0298,-2.0298,-2.0382,-2.0384,0,0,0,0,0,0,-2.0456,-2.0448,-2.0435,-2.0432,-2.0423,-2.0395,-2.039,-2.039,-2.0357,-2.035,-2.0356,-2.0351,-2.0321,-2.0319,-2.0317,-2.0363,-2.0298,-2.0299,-2.0299,-2.038,-2.0383,-2.0385,0,0,0,0,0,0,-2.0457,-2.0455,-2.0436,-2.0439,-2.0435,-2.0397,-2.0398,-2.039,-2.0387,-2.0351,-2.0344,-2.0361,-2.0319,-2.0317,-2.0334,-2.0361,-2.0299,-2.0299,-2.0378,-2.0381,-2.0384,-2.0455,0,0,0,0,0,0,-2.0457,-2.0456,-2.047,-2.044,-2.0436,-2.0453,-2.0399,-2.0391,-2.0387,-2.0381,-2.0354,-2.0347,-2.0317,-2.0334,-2.0334,-2.036,-2.0299,-2.0375,-2.0379,-2.0383,-2.045,-2.046,-2.0468,0,0,0,0,0,-2.0458,-2.0491,-2.0471,-2.047,-2.0453,-2.0455,-2.0452,-2.0417,-2.039,-2.0404,-2.0382,-2.0348,-2.0358,-2.0336,-2.0335,-2.0362,-2.0373,-2.0378,-2.0383,-2.0445,-2.0458,-2.0468,0,0,0,0,0,0,-2.0525,-2.0487,-2.0464,-2.0488,-2.0475,-2.0443,-2.046,-2.0431,-2.0426,-2.042,-2.0377,-2.0371,-2.0394,-2.038,-2.0356,-2.04,-2.036,-2.0365,-2.0408,-2.042,-2.0429,-2.0431,-2.0299,0,0,0,0,0,-2.0543,-2.0548,-2.0514,-2.0539,-2.0533,-2.0498,-2.0498,-2.0472,-2.0457,-2.0451,-2.043,-2.0417,-2.0417,-2.0418,-2.0416,-2.0448,-2.0441,-2.0466,-2.0476,-2.0484,-2.0488,-2.0505,-2.0516,-2.04,-2.04,-2.04,0,0,-2.058,-2.0559,-2.0564,-2.0552,-2.0539,-2.0545,-2.0494,-2.0502,-2.0506,-2.0452,-2.0466,-2.0451,-2.0434,-2.0459,-2.0469,-2.0448,-2.0519,-2.049,-2.0496,-2.0496,-2.0511,-2.0522,-2.0531,-2.0404,-2.0403,-2.0403,0,0,-2.0649,-2.0634,-2.0653,-2.0642,-2.0623,-2.06,-2.0605,-2.0577,-2.0565,-2.0579,-2.0539,-2.0544,-2.0545,-2.0535,-2.053,-2.0599,-2.0567,-2.0599,-2.0648,-2.0665,-2.0674,-2.0682,-2.0706,-2.0716,-2.0604,-2.0604,-2.0604,0,-2.0697,-2.0704,-2.0667,-2.0678,-2.0674,-2.0627,-2.0647,-2.0637,-2.0619,-2.0618,-2.0595,-2.0596,-2.0581,-2.0604,-2.0621,-2.0618,-2.0623,-2.0601,-2.0675,-2.0683,-2.069,-2.0713,-2.0722,-2.0608,-2.0608,-2.0607,-2.0607,0,-2.0764,-2.077,-2.0788,-2.0772,-2.077,-2.0786,-2.0752,-2.0755,-2.0731,-2.071,-2.0726,-2.0707,-2.0701,-2.0705,-2.068,-2.0724,-2.0712,-2.0683,-2.0642,-2.0705,-2.0726,-2.0735,-2.0614,-2.0612,-2.0611,-2.061,0,0,-2.0872,-2.0837,-2.0844,-2.0837,-2.0814,-2.0818,-2.0833,-2.0827,-2.0831,-2.0821,-2.0832,-2.0835,-2.0809,-2.0804,-2.0778,-2.0794,-2.085,-2.0763,-2.0762,-2.0779,-2.0898,-2.0919,-2.093,-2.083,-2.0832,-2.0833,-2.0899,0,-2.0936,-2.0957,-2.0926,-2.0955,-2.0961,-2.0917,-2.093,-2.0918,-2.09,-2.0902,-2.0883,-2.0886,-2.0851,-2.0848,-2.0861,-2.084,-2.0873,-2.0835,-2.084,-2.0841,-2.0845,-2.094,-2.0962,-2.1026,-2.0907,-2.0908,-2.0909,0,-2.1012,-2.1007,-2.1037,-2.1013,-2.1014,-2.1026,-2.102,-2.1023,-2.1009,-2.0995,-2.099,-2.0961,-2.0974,-2.0936,-2.0954,-2.093,-2.093,-2.0921,-2.0923,-2.0921,-2.0878,-2.0941,-2.1045,-2.1054,-2.0922,-2.0921,-2.092,0,-2.1088,-2.1088,-2.1106,-2.1101,-2.1075,-2.1084,-2.1074,-2.1058,-2.1057,-2.1052,-2.1051,-2.1048,-2.1046,-2.1045,-2.1016,-2.099,-2.1038,-2.0997,-2.1027,-2.1028,-2.1037,-2.1037,-2.1143,-2.104,-2.104,-2.104,-2.1039,0,-2.1162,-2.1182,-2.114,-2.1151,-2.1173,-2.1137,-2.116,-2.1145,-2.1132,-2.114,-2.1103,-2.1111,-2.1073,-2.1078,-2.1055,-2.1074,-2.1074,-2.1063,-2.1057,-2.1066,-2.1067,-2.1065,-2.1059,-2.1042,-2.1041,-2.1041,-2.1041,0,-2.125,-2.1222,-2.1239,-2.1213,-2.1207,-2.1225,-2.1203,-2.1212,-2.1193,-2.1204,-2.1205,-2.1174,-2.1178,-2.115,-2.1148,-2.1133,-2.1163,-2.115,-2.1168,-2.1163,-2.1195,-2.1192,-2.1302,-2.1314,-2.1204,-2.1205,-2.1206,0,-2.1298,-2.1313,-2.1289,-2.1292,-2.1283,-2.1288,-2.1287,-2.1254,-2.1255,-2.1242,-2.1254,-2.1255,-2.1253,-2.1262,-2.124,-2.124,-2.1225,-2.1264,-2.1225,-2.1234,-2.1226,-2.1225,-2.1226,-2.1272,-2.1273,-2.1274,-2.1275,0,-2.1387,-2.1374,-2.1374,-2.1371,-2.1371,-2.1367,-2.136,-2.1364,-2.1328,-2.1332,-2.1336,-2.1335,-2.1334,-2.1336,-2.1331,-2.1321,-2.1293,-2.1288,-2.1295,-2.1304,-2.1314,-2.1309,-2.1189,-2.1285,-2.1284,-2.1283,-2.1283,-2.1283,-2.1456,-2.1468,-2.1453,-2.1455,-2.1447,-2.1442,-2.145,-2.1433,-2.1435,-2.1431,-2.1412,-2.142,-2.1408,-2.1399,-2.1392,-2.1398,-2.1379,-2.1389,-2.1392,-2.1394,-2.14,-2.1314,-2.1397,-2.1397,-2.1396,-2.1396,-2.1396,0,-2.1543,-2.1532,-2.1535,-2.1527,-2.1529,-2.1503,-2.1495,-2.1498,-2.1505,-2.1496,-2.1497,-2.1502,-2.1504,-2.1484,-2.1483,-2.1492,-2.1479,-2.1493,-2.1492,-2.149,-2.1417,-2.141,-2.1504,-2.1504,-2.1504,-2.1504,-2.1504,-2.1504,-2.1589,-2.1607,-2.1592,-2.1606,-2.1594,-2.1601,-2.1599,-2.1595,-2.1588,-2.1595,-2.1597,-2.1584,-2.157,-2.1569,-2.1571,-2.1565,-2.1566,-2.1585,-2.1575,-2.1506,-2.1495,-2.1485,-2.1479,-2.1586,-2.1586,-2.1647,-2.1648,-2.1648]},{"header":{"parameterUnit":"m.s-1","parameterCategory":1,"la1":30.2991,"la2":30.254,"lo1":-89.0895,"lo2":-89.0444,"dy":0.0017,"dx":0.0017,"nx":28,"ny":28,"refTime":"2025-04-22T21:00:00:Z","depth":0,"parameterNumber":3,"parameterNumberName":"V-component_of_WINDS"},"data":[0,0,0,0,0,0,0,0,0,0,0,0,0,0,0,0,0,0,0,0,0,0,0,0,0,0,0,0,0,0,0,0,0,0,0,0,0,0,0,0,0,0,0,0,0,0,0,0,0,0,0,0,0,0,0,0,0,0,2.841,2.8411,0,2.8421,2.8421,2.8422,2.8477,2.8479,2.848,2.8481,2.8487,2.8486,2.8485,0,0,0,0,0,0,0,0,0,0,0,0,0,2.8434,2.8433,2.841,2.8411,2.8411,2.8421,2.8421,2.8422,2.8477,2.8479,2.848,2.8482,2.8488,2.8486,2.8485,0,0,0,0,0,0,0,0,0,0,0,0,0,2.8432,2.8433,2.841,2.844,2.8443,2.8421,2.8421,2.8422,2.8477,2.8479,2.8481,2.8483,2.8488,2.8486,2.8485,2.8434,0,0,2.848,2.8479,0,0,0,0,0,0,0,0,2.8432,2.8431,2.8435,2.8438,2.8441,2.845,2.8432,2.8426,2.8476,2.8464,2.8481,2.8484,2.8473,2.8473,2.847,2.8435,2.8435,2.848,2.8479,2.8478,2.8478,0,0,0,0,0,0,0,2.8432,2.8431,2.8415,2.8435,2.8439,2.8451,2.8453,2.8431,2.8457,2.8465,2.8469,2.847,2.8475,2.8472,2.8471,2.8435,2.848,2.8478,2.8477,2.8477,2.8359,2.8357,0,0,0,0,0,0,2.8429,2.843,2.8414,2.8415,2.8441,2.8449,2.8451,2.8445,2.8457,2.8461,2.8468,2.8472,2.8473,2.8473,2.8471,2.8413,2.8478,2.8477,2.8476,2.8361,2.8359,2.8356,0,0,0,0,0,0,2.8429,2.8427,2.8414,2.8424,2.8423,2.8447,2.8439,2.8444,2.8441,2.846,2.8464,2.846,2.8475,2.8473,2.8444,2.8414,2.8476,2.8474,2.8364,2.836,2.8357,2.8296,0,0,0,0,0,0,2.8429,2.8426,2.8408,2.8423,2.8423,2.8387,2.8437,2.8443,2.8439,2.8444,2.8454,2.8457,2.8476,2.8446,2.8442,2.8413,2.8473,2.8366,2.8362,2.8358,2.83,2.8291,2.8282,0,0,0,0,0,2.843,2.8389,2.8407,2.8405,2.8401,2.8385,2.8385,2.841,2.8436,2.8418,2.843,2.8457,2.8418,2.8442,2.8438,2.8408,2.8368,2.8363,2.8359,2.8304,2.8293,2.8283,0,0,0,0,0,0,2.8368,2.8392,2.8412,2.8375,2.8378,2.8395,2.8372,2.8396,2.839,2.8396,2.8425,2.8427,2.8392,2.8398,2.8424,2.836,2.8398,2.8392,2.8358,2.8347,2.8338,2.8337,2.8472,0,0,0,0,0,2.8351,2.8338,2.8358,2.8324,2.8325,2.8348,2.8342,2.8361,2.8365,2.8366,2.8376,2.8377,2.8365,2.8356,2.8347,2.8302,2.8304,2.8279,2.827,2.8263,2.8257,2.8234,2.8223,2.834,2.834,2.8341,0,0,2.8313,2.8325,2.8314,2.8312,2.8316,2.8301,2.8348,2.833,2.8318,2.8362,2.8335,2.8343,2.8346,2.8308,2.8292,2.8311,2.8225,2.8257,2.8251,2.8249,2.8227,2.8216,2.8206,2.8337,2.8338,2.8338,0,0,2.8238,2.8245,2.8218,2.8222,2.8229,2.8245,2.8238,2.8252,2.8259,2.8233,2.8266,2.8252,2.8231,2.8232,2.823,2.8156,2.818,2.8152,2.8104,2.8081,2.8072,2.8064,2.8036,2.8027,2.8146,2.8146,2.8146,0,2.819,2.817,2.82,2.818,2.8177,2.8219,2.819,2.8192,2.8195,2.8191,2.8214,2.8189,2.8194,2.8158,2.814,2.8137,2.8129,2.815,2.8071,2.8063,2.8056,2.803,2.802,2.8143,2.8143,2.8143,2.8144,0,2.811,2.8096,2.8072,2.8076,2.8071,2.8047,2.8072,2.8063,2.8083,2.8096,2.8069,2.8077,2.8069,2.8062,2.8081,2.8028,2.804,2.8066,2.8104,2.8041,2.8017,2.8008,2.8138,2.8139,2.814,2.8141,0,0,2.7994,2.8017,2.8007,2.801,2.8021,2.801,2.7987,2.7982,2.7973,2.7974,2.7955,2.7937,2.7962,2.7959,2.7978,2.7958,2.7899,2.7987,2.7988,2.7969,2.7841,2.782,2.7808,2.7916,2.7914,2.7913,2.784,0,2.7922,2.7886,2.7912,2.7871,2.7857,2.7897,2.7878,2.7882,2.7894,2.7883,2.7896,2.7883,2.7917,2.7916,2.7898,2.791,2.7873,2.7916,2.7897,2.7896,2.7893,2.7796,2.7774,2.7705,2.7831,2.783,2.7829,0,2.7831,2.783,2.7788,2.7803,2.7798,2.778,2.7778,2.7767,2.7773,2.7783,2.7781,2.7806,2.7783,2.7822,2.7791,2.782,2.7814,2.7819,2.7817,2.7814,2.7857,2.779,2.7684,2.7673,2.7814,2.7816,2.7817,0,2.775,2.7738,2.7711,2.7712,2.7729,2.7715,2.7721,2.7729,2.7724,2.7722,2.7719,2.7713,2.7709,2.7704,2.7726,2.7753,2.7692,2.7733,2.7698,2.7698,2.7682,2.7683,2.7572,2.7681,2.7681,2.7681,2.7681,0,2.7665,2.7637,2.7675,2.7658,2.7628,2.7659,2.7628,2.7638,2.7645,2.763,2.7664,2.7649,2.768,2.7668,2.7685,2.7656,2.7654,2.7661,2.7666,2.7657,2.7656,2.7653,2.7657,2.7678,2.7679,2.7679,2.768,0,2.7568,2.7593,2.7566,2.7585,2.7589,2.7566,2.7582,2.7566,2.7582,2.7563,2.756,2.7583,2.7571,2.7593,2.7582,2.7594,2.7554,2.7566,2.7552,2.7555,2.752,2.7522,2.7402,2.7387,2.7506,2.7505,2.7504,0,2.7512,2.7492,2.7509,2.7503,2.7508,2.7496,2.7492,2.7522,2.7516,2.7522,2.7505,2.7496,2.7491,2.7469,2.7483,2.7476,2.7488,2.7446,2.7487,2.7479,2.7486,2.7486,2.7484,2.7437,2.7436,2.7434,2.7434,0,2.7409,2.7422,2.7416,2.7414,2.7409,2.7408,2.7409,2.7402,2.7434,2.7425,2.7414,2.7409,2.74,2.739,2.7386,2.7391,2.7417,2.7421,2.7413,2.7403,2.7395,2.7398,2.7528,2.7423,2.7424,2.7425,2.7426,2.7426,2.733,2.7314,2.7324,2.7316,2.7321,2.7322,2.7309,2.7323,2.7315,2.7311,2.7329,2.7313,2.732,2.7318,2.732,2.7308,2.7326,2.7314,2.731,2.7306,2.73,2.7399,2.7307,2.7307,2.7308,2.7308,2.7308,0,2.7228,2.7237,2.723,2.7232,2.7225,2.7253,2.7256,2.7248,2.7235,2.7239,2.7233,2.722,2.7211,2.7226,2.7219,2.7206,2.7218,2.7203,2.7204,2.7204,2.7285,2.7293,2.7194,2.7194,2.7194,2.7194,2.7194,2.7194,2.7174,2.7149,2.7164,2.7141,2.715,2.7136,2.7135,2.7136,2.714,2.7124,2.7118,2.7128,2.7137,2.7131,2.7124,2.7128,2.7123,2.7104,2.7113,2.7187,2.7199,2.7209,2.7216,2.7103,2.7103,2.7033,2.7033,2.7032]}]]